When you browse on this site, cookies collect data to enhance your experience and personalize the content and advertising you see.
Visit our Privacy Policy to learn more. By continuing to use the site, you agree to this use of cookies and data.
  • In Spain
  • List of Countries
  • For 7 days
  • Water Temperature
  • Weather Map
  • Weather Widgets
  • user-avatar
    Login

    Hourly Weather Port Said

    Today, 18 February, Tuesday

    Time Temperature Precipitation Wind Pressure Humidity
    00:00 +14°C° 0 mm 5 mps 763 mmHg 75%
    01:00 +14°C° 0 mm 4 mps 762 mmHg 74%
    02:00 +14°C° 0 mm 5 mps 762 mmHg 72%
    03:00 +13°C° 0 mm 5 mps 762 mmHg 74%
    04:00 +13°C° 0 mm 5 mps 762 mmHg 75%
    05:00 +13°C° 0 mm 5 mps 762 mmHg 77%
    06:00 +14°C° 0 mm 5 mps 762 mmHg 75%
    07:00 +15°C° 0 mm 5 mps 762 mmHg 73%
    08:00 +15°C° 0 mm 5 mps 762 mmHg 72%
    09:00 +16°C° 0 mm 5 mps 762 mmHg 66%
    10:00 +18°C° 0 mm 4 mps 762 mmHg 60%
    11:00 +19°C° 0 mm 4 mps 762 mmHg 54%
    12:00 +19°C° 0 mm 4 mps 762 mmHg 53%
    13:00 +19°C° 0 mm 5 mps 761 mmHg 51%
    14:00 +20°C° 0 mm 5 mps 761 mmHg 49%
    15:00 +19°C° 0.1 mm 5 mps 761 mmHg 52%
    16:00 +19°C° 0.1 mm 5 mps 761 mmHg 55%
    17:00 +17°C° 0.1 mm 5 mps 761 mmHg 58%
    18:00 +16°C° 0.1 mm 5 mps 761 mmHg 62%
    19:00 +16°C° 0.1 mm 5 mps 761 mmHg 66%
    20:00 +15°C° 0.1 mm 4 mps 762 mmHg 70%
    21:00 +15°C° 0 mm 5 mps 762 mmHg 71%
    22:00 +14°C° 0 mm 5 mps 762 mmHg 73%
    23:00 +14°C° 0 mm 5 mps 761 mmHg 74%

    Tomorrow, 19 February, Wednesday

    Time Temperature Precipitation Wind Pressure Humidity
    00:00 +13°C° 0.1 mm 5 mps 761 mmHg 76%
    01:00 +13°C° 0.1 mm 5 mps 761 mmHg 78%
    02:00 +12°C° 0.1 mm 5 mps 761 mmHg 80%
    03:00 +12°C° 0.4 mm 5 mps 761 mmHg 81%
    04:00 +12°C° 0.4 mm 5 mps 761 mmHg 83%
    05:00 +10°C° 0.4 mm 5 mps 761 mmHg 84%
    06:00 +11°C° 0.1 mm 6 mps 761 mmHg 81%
    07:00 +11°C° 0.1 mm 6 mps 761 mmHg 78%
    08:00 +13°C° 0.1 mm 6 mps 761 mmHg 76%
    09:00 +15°C° 0.4 mm 7 mps 761 mmHg 66%
    10:00 +16°C° 0.4 mm 8 mps 761 mmHg 56%
    11:00 +18°C° 0.4 mm 8 mps 761 mmHg 47%
    12:00 +20°C° 0.1 mm 8 mps 761 mmHg 46%
    13:00 +20°C° 0.1 mm 8 mps 761 mmHg 46%
    14:00 +20°C° 0.1 mm 8 mps 761 mmHg 45%
    15:00 +18°C° 0 mm 8 mps 761 mmHg 47%
    16:00 +18°C° 0 mm 7 mps 761 mmHg 50%
    17:00 +17°C° 0 mm 7 mps 761 mmHg 52%
    18:00 +16°C° 0 mm 7 mps 762 mmHg 58%
    19:00 +15°C° 0 mm 6 mps 762 mmHg 65%
    20:00 +14°C° 0 mm 6 mps 763 mmHg 72%
    21:00 +14°C° 0 mm 6 mps 763 mmHg 73%
    22:00 +14°C° 0 mm 5 mps 763 mmHg 75%
    23:00 +14°C° 0 mm 5 mps 763 mmHg 77%

    Day after tomorrow, 20 February, Thursday

    Time Temperature Precipitation Wind Pressure Humidity
    00:00 +13°C° 0 mm 5 mps 763 mmHg 79%
    01:00 +12°C° 0 mm 5 mps 763 mmHg 82%
    02:00 +12°C° 0 mm 4 mps 763 mmHg 84%
    03:00 +11°C° 0 mm 4 mps 763 mmHg 86%
    04:00 +11°C° 0 mm 4 mps 763 mmHg 87%
    05:00 +11°C° 0 mm 4 mps 763 mmHg 88%
    06:00 +11°C° 0 mm 4 mps 763 mmHg 85%
    07:00 +12°C° 0 mm 5 mps 764 mmHg 82%
    08:00 +12°C° 0 mm 5 mps 764 mmHg 80%
    09:00 +14°C° 0 mm 5 mps 764 mmHg 69%
    10:00 +16°C° 0 mm 5 mps 764 mmHg 59%
    11:00 +19°C° 0 mm 4 mps 764 mmHg 49%
    12:00 +20°C° 0 mm 4 mps 764 mmHg 44%
    13:00 +21°C° 0 mm 4 mps 763 mmHg 38%
    14:00 +22°C° 0 mm 3 mps 763 mmHg 33%
    15:00 +21°C° 0 mm 4 mps 762 mmHg 41%
    16:00 +19°C° 0 mm 5 mps 762 mmHg 49%
    17:00 +17°C° 0 mm 5 mps 762 mmHg 58%
    18:00 +16°C° 0 mm 5 mps 762 mmHg 62%
    19:00 +15°C° 0 mm 4 mps 762 mmHg 67%
    20:00 +16°C° 0 mm 3 mps 762 mmHg 71%
    21:00 +15°C° 0 mm 2 mps 762 mmHg 72%
    22:00 +15°C° 0 mm 2 mps 762 mmHg 73%
    23:00 +14°C° 0 mm 1 mps 762 mmHg 74%

    21 February, Friday

    Time Temperature Precipitation Wind Pressure Humidity
    00:00 +14°C° 0 mm 2 mps 762 mmHg 74%
    01:00 +13°C° 0 mm 3 mps 762 mmHg 75%
    02:00 +13°C° 0 mm 3 mps 761 mmHg 75%
    03:00 +12°C° 0 mm 4 mps 761 mmHg 77%
    04:00 +12°C° 0 mm 4 mps 761 mmHg 80%
    05:00 +12°C° 0 mm 5 mps 761 mmHg 83%
    06:00 +11°C° 0 mm 6 mps 761 mmHg 73%
    07:00 +13°C° 0 mm 6 mps 761 mmHg 63%
    08:00 +14°C° 0 mm 7 mps 761 mmHg 53%
    15:00 +20°C° 0 mm 8 mps 759 mmHg 43%
    16:00 +18°C° 0 mm 9 mps 759 mmHg 49%
    17:00 +16°C° 0 mm 9 mps 759 mmHg 56%
    18:00 +15°C° 0 mm 9 mps 759 mmHg 56%
    19:00 +15°C° 0 mm 9 mps 759 mmHg 56%
    20:00 +13°C° 0 mm 9 mps 760 mmHg 56%
    21:00 +12°C° 0 mm 9 mps 760 mmHg 61%
    22:00 +12°C° 0 mm 9 mps 760 mmHg 66%
    23:00 +11°C° 0 mm 9 mps 760 mmHg 72%

    22 February, Saturday

    Time Temperature Precipitation Wind Pressure Humidity
    00:00 +11°C° 0 mm 9 mps 760 mmHg 75%
    01:00 +11°C° 0 mm 8 mps 760 mmHg 78%
    02:00 +10°C° 0 mm 8 mps 760 mmHg 81%
    03:00 +10°C° 0 mm 8 mps 761 mmHg 83%
    04:00 +9°C° 0 mm 7 mps 761 mmHg 85%
    05:00 +9°C° 0 mm 7 mps 761 mmHg 87%
    06:00 +10°C° 0 mm 7 mps 761 mmHg 82%
    07:00 +11°C° 0 mm 7 mps 761 mmHg 77%
    08:00 +13°C° 0 mm 6 mps 762 mmHg 71%
    09:00 +14°C° 0 mm 6 mps 762 mmHg 64%
    10:00 +16°C° 0 mm 6 mps 762 mmHg 56%
    11:00 +17°C° 0 mm 6 mps 762 mmHg 48%
    12:00 +19°C° 0 mm 6 mps 762 mmHg 47%
    13:00 +18°C° 0 mm 7 mps 762 mmHg 46%
    14:00 +18°C° 0 mm 7 mps 762 mmHg 45%
    15:00 +18°C° 0 mm 7 mps 762 mmHg 47%
    16:00 +17°C° 0 mm 7 mps 762 mmHg 50%
    17:00 +16°C° 0 mm 7 mps 762 mmHg 52%
    18:00 +15°C° 0 mm 7 mps 762 mmHg 56%
    19:00 +14°C° 0 mm 7 mps 762 mmHg 61%
    20:00 +13°C° 0 mm 6 mps 763 mmHg 66%
    21:00 +12°C° 0 mm 7 mps 763 mmHg 67%
    22:00 +11°C° 0 mm 7 mps 763 mmHg 67%
    23:00 +11°C° 0 mm 7 mps 763 mmHg 68%

    23 February, Sunday

    Time Temperature Precipitation Wind Pressure Humidity
    00:00 +10°C° 0 mm 7 mps 763 mmHg 70%
    01:00 +9°C° 0 mm 8 mps 763 mmHg 72%
    02:00 +9°C° 0 mm 8 mps 762 mmHg 74%
    03:00 +9°C° 0 mm 8 mps 762 mmHg 71%
    04:00 +10°C° 0 mm 8 mps 762 mmHg 68%
    05:00 +11°C° 0 mm 7 mps 762 mmHg 65%
    06:00 +11°C° 0.1 mm 7 mps 762 mmHg 64%
    07:00 +11°C° 0.1 mm 7 mps 762 mmHg 62%
    08:00 +12°C° 0.1 mm 7 mps 763 mmHg 60%
    09:00 +14°C° 0 mm 7 mps 763 mmHg 53%
    10:00 +15°C° 0 mm 7 mps 763 mmHg 45%
    11:00 +17°C° 0 mm 8 mps 762 mmHg 37%
    12:00 +17°C° 0 mm 8 mps 762 mmHg 36%
    13:00 +17°C° 0 mm 9 mps 761 mmHg 35%
    14:00 +17°C° 0 mm 9 mps 761 mmHg 34%
    15:00 +16°C° 0 mm 9 mps 761 mmHg 34%
    16:00 +16°C° 0 mm 9 mps 761 mmHg 34%
    17:00 +16°C° 0 mm 10 mps 760 mmHg 34%
    18:00 +13°C° 0 mm 9 mps 760 mmHg 40%
    19:00 +12°C° 0 mm 9 mps 760 mmHg 47%
    20:00 +11°C° 0 mm 9 mps 760 mmHg 53%
    21:00 +10°C° 0 mm 9 mps 760 mmHg 61%
    22:00 +10°C° 0 mm 9 mps 760 mmHg 69%
    23:00 +8°C° 0 mm 9 mps 760 mmHg 77%
    Show more